Date,TemperatureHighF,TemperatureAvgF,TemperatureLowF,DewpointHighF,DewpointAvgF,DewpointLowF,HumidityHigh,HumidityAvg,HumidityLow,PressureMaxIn,PressureMinIn,WindSpeedMaxMPH,WindSpeedAvgMPH,GustSpeedMaxMPH,PrecipitationSumIn
2012-1-1,32.7,24.7,18.3,31.9,20.2,12.1,97,83,73,30.29,29.71,22,4,28,0.00
2012-1-2,19.1,15.1,6.2,14.8,9.1,3.2,92,77,66,30.50,30.28,16,2,18,0.00
2012-1-3,28.5,19.0,8.3,21.8,13.8,5.5,90,80,68,30.46,29.86,24,3,24,0.00
2012-1-4,37.3,28.8,22.0,29.8,25.2,19.5,93,87,73,30.09,29.87,9,2,12,0.00
2012-1-5,46.3,36.1,24.5,36.3,30.9,22.7,95,82,67,29.93,29.59,9,1,10,0.00
2012-1-6,43.6,39.2,34.7,33.6,31.1,26.5,83,73,62,29.83,29.58,13,4,16,0.00
2012-1-7,35.4,29.8,24.2,29.5,24.6,20.7,92,81,67,30.18,29.83,10,1,16,0.00
2012-1-8,39.5,29.3,19.5,30.4,25.1,18.0,96,85,66,30.28,30.06,9,1,13,0.00
2012-1-9,46.1,35.8,28.7,33.6,29.1,26.2,93,77,59,30.07,29.85,14,3,18,0.00
2012-1-10,52.4,38.0,26.5,38.5,32.2,24.8,95,81,55,29.93,29.58,11,1,12,0.00
2012-1-11,36.2,26.4,12.9,34.0,22.9,7.6,93,86,76,29.82,29.54,20,3,23,0.00
2012-1-12,13.5,11.2,8.8,9.3,6.4,4.5,86,81,76,29.88,29.77,16,4,22,0.00
2012-1-13,12.2,8.8,1.5,8.9,5.3,-1.5,90,85,80,30.01,29.88,12,1,13,0.00
2012-1-14,24.8,15.5,2.6,22.8,12.8,-0.2,100,89,81,30.11,30.00,8,0,9,0.00
2012-1-15,41.5,28.3,17.3,28.9,23.5,15.6,96,83,56,30.11,29.68,20,1,21,0.01
2012-1-16,31.7,26.6,20.3,27.1,20.8,12.9,94,79,62,29.92,29.66,16,1,16,0.00
2012-1-17,20.3,11.8,2.5,14.0,5.5,-1.5,87,76,58,30.28,29.90,15,3,19,0.00
2012-1-18,24.9,10.5,-0.5,20.0,5.0,-7.5,87,78,67,30.24,29.71,22,5,25,0.00
2012-1-19,3.2,-3.7,-10.7,-7.5,-12.3,-16.7,75,66,49,30.21,29.95,15,2,15,0.00
2012-1-20,13.0,3.8,-4.1,6.0,-1.6,-8.8,93,78,61,30.27,30.15,4,0,5,0.00
2012-1-21,20.7,8.4,-4.9,18.2,4.6,-8.2,90,84,68,30.27,29.80,15,1,21,0.00
2012-1-22,26.9,23.3,18.8,25.9,21.5,15.9,96,93,86,29.80,29.46,15,0,18,0.00
2012-1-23,26.4,22.7,19.1,25.4,21.0,16.7,99,93,90,29.91,29.44,14,3,16,0.00
2012-1-24,22.4,20.2,14.7,20.9,18.1,12.5,94,91,89,30.29,29.91,11,2,12,0.00
2012-1-25,32.7,27.5,22.4,30.9,25.3,20.8,100,91,83,30.29,29.82,15,3,18,0.00
2012-1-26,38.9,30.7,21.7,32.3,27.2,18.8,94,87,77,29.83,29.64,13,2,16,0.00
2012-1-27,34.8,26.4,18.7,32.8,22.9,16.3,96,86,69,29.92,29.70,20,4,23,0.00
2012-1-28,27.6,21.8,16.2,20.3,16.3,12.0,92,79,66,29.99,29.90,18,5,18,0.00
2012-1-29,22.1,16.3,10.2,20.3,11.2,6.3,93,80,65,30.18,29.94,9,1,9,0.00
2012-1-30,45.6,32.6,20.0,33.4,26.9,16.3,92,80,60,29.95,29.58,9,1,10,0.00
2012-1-31,44.3,35.9,30.7,37.0,32.1,29.4,95,86,75,29.95,29.50,17,4,17,0.00
2012-2-1,35.1,32.1,29.7,34.2,31.4,28.9,98,97,95,30.07,29.94,8,1,10,0.00
2012-2-2,32.8,29.6,24.0,32.3,29.0,23.0,98,98,96,30.38,30.07,2,0,4,0.00
2012-2-3,32.0,29.6,25.4,30.9,28.8,24.4,100,97,92,30.45,30.37,4,0,6,0.00
2012-2-4,31.2,27.2,22.7,29.1,26.3,21.7,98,96,91,30.41,30.30,9,2,10,0.00
2012-2-5,28.5,27.3,25.9,27.3,26.4,24.9,98,96,94,30.35,30.18,7,1,9,0.00
2012-2-6,43.2,32.1,22.7,34.8,28.1,21.7,98,86,69,30.24,30.03,9,1,10,0.00
2012-2-7,30.6,24.8,14.6,26.0,18.9,9.3,86,78,68,30.48,30.24,7,1,9,0.00
2012-2-8,29.6,18.8,9.3,13.5,8.3,4.1,84,65,36,30.48,30.25,8,1,9,0.00
2012-2-9,36.9,26.2,14.8,29.1,20.0,10.3,91,77,63,30.24,29.88,14,2,19,0.00
2012-2-10,28.4,12.7,6.1,22.0,1.5,-7.3,77,61,40,30.54,29.94,17,3,20,0.00
2012-2-11,18.8,9.2,-0.6,1.9,-3.4,-9.1,70,57,38,30.64,30.51,15,4,18,0.00
2012-2-12,31.7,17.2,4.6,5.7,2.4,-1.9,75,54,28,30.51,30.08,9,2,14,0.00
2012-2-13,28.3,24.1,15.5,27.5,18.0,5.2,100,78,57,30.08,29.71,11,2,15,0.00
2012-2-14,33.2,28.2,21.7,29.4,25.6,20.1,96,90,82,29.77,29.69,12,2,13,0.01
2012-2-15,37.6,28.7,15.5,31.3,25.7,13.6,96,89,75,30.01,29.77,6,0,7,0.00
2012-2-16,38.0,28.4,20.8,29.4,23.3,18.6,94,82,58,30.08,30.00,16,3,17,0.00
2012-2-17,39.6,30.5,23.7,30.2,24.1,16.2,90,78,63,30.13,29.91,15,2,17,0.00
2012-2-18,36.3,25.2,15.4,23.1,17.6,11.9,92,74,51,30.24,30.13,8,0,10,0.00
2012-2-19,42.2,29.4,17.4,25.8,21.7,15.0,92,74,47,30.14,30.02,14,2,17,0.00
2012-2-20,43.9,32.8,23.7,31.0,25.6,19.9,96,77,50,30.07,29.59,15,1,19,0.00
2012-2-21,33.5,31.9,28.4,32.3,29.0,24.2,97,89,76,29.59,29.47,17,5,20,0.01
2012-2-22,34.1,25.6,15.7,25.0,21.3,13.8,97,84,66,29.53,29.39,8,1,9,0.00
2012-2-23,37.7,30.8,23.3,28.6,25.3,21.3,93,80,68,29.66,29.39,6,0,7,0.00
2012-2-24,28.1,22.9,12.6,26.6,16.8,7.1,100,77,64,30.05,29.66,17,3,20,0.00
2012-2-25,29.9,18.7,8.0,20.4,12.5,4.7,87,77,59,30.24,30.04,9,1,14,0.00
2012-2-26,38.0,28.5,23.1,31.1,22.9,16.4,88,79,69,30.04,29.60,19,5,26,0.00
2012-2-27,30.3,21.9,17.5,21.1,17.0,14.4,91,82,62,30.41,30.00,18,4,18,0.00
2012-2-28,32.9,30.2,22.9,31.5,26.5,18.8,97,86,71,30.36,29.53,10,1,13,0.02
2012-2-29,34.4,32.6,31.0,33.8,31.8,29.7,98,97,95,29.67,29.15,9,1,11,0.05
2012-3-1,35.4,31.7,27.7,32.4,29.7,26.4,97,92,84,29.78,29.66,7,0,8,0.00
2012-3-2,34.7,29.7,25.2,31.7,27.1,23.1,98,90,77,29.72,29.57,17,4,20,0.00
2012-3-3,26.0,19.1,11.7,23.2,15.8,8.9,90,87,80,29.87,29.58,17,6,19,0.00
2012-3-4,27.8,17.3,7.4,19.2,12.7,4.9,100,82,64,30.11,29.85,9,1,11,0.00
2012-3-5,36.4,25.0,11.8,28.6,21.0,9.9,95,85,64,30.21,29.84,20,4,23,0.00
2012-3-6,59.3,44.5,29.0,47.9,36.6,25.4,91,74,58,29.84,29.50,17,4,23,0.00
2012-3-7,49.4,39.4,25.8,46.3,36.1,21.9,96,88,77,29.91,29.46,18,5,19,0.00
2012-3-8,38.0,28.5,21.7,29.1,21.2,8.8,92,75,50,30.37,29.91,25,5,25,0.00
2012-3-9,35.7,26.0,15.0,22.6,13.9,6.3,74,60,41,30.58,30.12,18,1,21,0.00
2012-3-10,64.1,50.2,35.0,38.4,31.1,22.1,64,49,34,30.12,29.87,19,6,22,0.00
2012-3-11,64.5,52.4,42.8,43.1,36.3,30.0,78,55,35,29.93,29.69,18,4,19,0.00
2012-3-12,52.2,47.5,42.9,47.8,45.3,39.1,98,92,78,29.83,29.56,11,2,14,0.01
2012-3-13,68.0,48.7,31.7,46.9,39.5,30.4,98,74,38,30.00,29.77,12,1,17,0.00
2012-3-14,70.5,58.3,48.9,53.5,49.0,42.7,89,72,51,29.81,29.65,14,2,17,0.00
2012-3-15,70.2,54.2,40.4,49.5,36.4,25.0,70,52,39,29.94,29.81,6,0,7,0.00
2012-3-16,78.9,61.1,43.7,62.1,51.4,39.1,93,72,50,29.90,29.72,16,2,20,0.00
2012-3-17,79.4,67.8,58.5,63.8,59.2,55.0,93,75,55,29.73,29.63,21,6,26,0.00
2012-3-18,77.1,67.2,60.8,61.4,59.5,56.9,88,77,59,29.70,29.61,25,8,27,0.00
2012-3-19,78.3,67.2,59.8,63.1,60.0,58.1,97,79,54,29.64,29.50,26,5,30,0.14
2012-3-20,62.7,58.8,54.8,59.8,55.4,53.2,97,89,76,29.84,29.59,12,1,14,0.00
2012-3-21,65.2,58.8,54.2,58.8,55.9,52.9,98,90,77,29.97,29.80,13,1,18,0.00
2012-3-22,67.0,59.6,55.8,62.9,58.1,55.0,98,95,84,29.98,29.85,4,0,8,0.19
2012-3-23,70.6,61.5,55.6,60.5,57.4,54.8,99,88,62,29.89,29.77,6,0,7,0.01
2012-3-24,67.9,57.9,53.8,59.2,55.2,51.9,98,91,69,29.95,29.80,6,0,8,0.00
2012-3-25,59.9,48.7,37.5,53.4,38.2,31.0,93,70,38,30.17,29.95,7,0,10,0.04
2012-3-26,44.9,39.4,35.9,35.7,32.8,29.2,94,78,59,30.22,29.85,17,1,19,0.16
2012-3-27,68.1,54.0,40.5,53.8,42.7,32.5,79,67,44,29.86,29.56,24,6,29,0.00
2012-3-28,54.7,45.4,38.2,41.4,37.8,34.6,89,75,56,30.01,29.75,12,3,14,0.00
2012-3-29,62.6,48.9,37.1,47.4,39.7,33.0,95,72,49,30.03,29.69,11,0,12,0.22
2012-3-30,52.6,45.1,40.2,48.2,43.1,39.2,97,93,82,29.82,29.68,5,0,7,0.02
2012-3-31,50.5,45.6,40.1,47.9,43.9,39.0,97,94,89,29.81,29.66,14,0,14,0.00
2012-4-1,67.6,53.1,44.5,52.5,46.9,43.7,98,81,53,29.68,29.50,8,0,14,0.00
2012-4-2,73.9,59.3,47.9,55.3,47.1,37.9,81,65,47,29.71,29.55,11,1,15,0.00
2012-4-3,63.6,52.5,44.6,52.4,40.9,31.5,87,67,33,30.00,29.67,10,1,18,0.00
2012-4-4,64.1,51.6,41.6,36.3,31.4,27.6,66,47,29,30.02,29.86,5,0,10,0.00
2012-4-5,61.4,48.1,38.1,35.1,30.8,26.7,77,53,29,30.11,29.91,9,0,9,0.00
2012-4-6,63.9,47.0,31.5,34.6,30.0,26.6,86,55,27,30.22,30.01,13,0,15,0.00
2012-4-7,56.3,47.6,41.6,48.2,36.7,28.0,96,67,47,30.14,29.96,18,3,20,0.12
2012-4-8,60.4,46.1,31.9,34.9,27.9,22.7,85,52,24,30.20,30.00,18,2,21,0.00
2012-4-9,48.1,40.0,32.0,29.5,24.9,20.4,70,55,42,30.12,30.02,19,2,21,0.00
2012-4-10,44.8,34.1,23.0,26.0,20.8,17.2,90,60,37,30.26,30.12,14,1,18,0.00
2012-4-11,54.6,38.4,23.4,31.5,23.6,17.3,83,57,34,30.37,30.17,5,0,8,0.00
2012-4-12,65.3,48.7,30.7,31.3,27.1,23.2,83,47,22,30.18,29.96,13,1,18,0.00
2012-4-13,51.6,49.7,44.0,50.5,40.8,29.8,96,74,43,29.96,29.67,18,1,19,0.18
2012-4-14,73.6,58.1,43.6,58.3,51.0,42.4,98,80,41,29.77,29.48,12,2,14,0.01
2012-4-15,74.7,60.5,52.5,65.6,56.6,51.1,100,88,62,29.51,29.11,22,3,26,0.92
2012-4-16,52.9,39.7,33.5,52.1,36.4,30.8,97,88,77,30.16,29.11,21,3,22,0.21
2012-4-17,61.7,45.5,29.7,47.6,38.5,28.4,97,78,54,30.27,29.91,13,1,17,0.20
2012-4-18,59.0,54.0,46.1,52.0,48.1,39.6,92,81,70,29.93,29.74,24,5,27,0.16
2012-4-19,46.0,40.3,37.1,40.5,37.6,34.4,96,90,78,29.98,29.86,4,0,6,0.49
2012-4-20,57.7,44.2,30.8,37.6,33.2,28.8,96,69,36,30.05,29.92,5,0,11,0.00
2012-4-21,51.1,44.1,38.6,42.9,38.0,32.3,95,79,61,29.97,29.83,14,2,19,0.13
2012-4-22,55.6,46.6,40.8,44.5,41.6,38.3,97,84,57,30.17,29.89,6,0,8,0.05
2012-4-23,62.0,48.8,35.4,46.7,40.6,34.3,98,76,50,30.16,29.79,10,0,11,0.01
2012-4-24,75.1,59.7,47.0,51.7,45.9,42.4,88,63,35,29.79,29.50,5,0,9,0.01
2012-4-25,74.5,61.2,49.7,59.0,51.4,44.9,91,71,53,29.64,29.43,10,0,12,0.03
2012-4-26,58.6,49.7,39.2,51.6,35.6,25.2,91,61,33,30.09,29.64,8,0,13,0.00
2012-4-27,56.6,47.1,38.7,35.4,29.9,26.7,70,52,36,30.13,29.93,11,0,20,0.00
2012-4-28,49.3,42.0,37.6,41.3,35.7,21.6,95,81,38,30.17,29.88,9,0,19,0.16
2012-4-29,57.9,48.8,42.0,47.2,43.1,40.0,94,82,63,30.19,29.96,6,0,8,0.07
2012-4-30,62.6,52.4,44.1,53.5,48.2,43.0,97,86,65,29.96,29.76,14,1,18,0.01
2012-5-1,74.0,60.1,50.4,63.4,55.5,48.5,95,85,66,29.77,29.50,21,3,28,1.24
2012-5-2,82.3,66.0,54.5,67.2,60.3,53.6,98,84,50,29.68,29.46,13,1,13,0.31
2012-5-3,81.8,68.5,60.9,70.5,63.1,56.1,97,84,57,29.81,29.62,8,0,12,0.39
2012-5-4,76.1,62.2,51.9,64.3,57.0,49.6,96,84,63,29.88,29.71,8,0,13,0.33
2012-5-5,58.5,55.6,53.9,57.5,54.5,52.9,100,96,94,30.00,29.75,15,0,18,0.26
2012-5-6,62.2,57.2,53.2,58.8,55.8,52.4,98,95,87,29.93,29.74,9,0,14,0.24
2012-5-7,64.7,57.0,49.4,56.6,49.5,44.3,97,77,51,29.92,29.81,15,2,16,0.00
2012-5-8,60.4,50.8,45.1,52.3,47.1,42.6,97,88,67,29.88,29.78,10,1,13,0.45
2012-5-9,64.8,53.3,46.3,49.0,44.7,39.0,97,75,41,30.08,29.89,5,0,7,0.01
2012-5-10,74.5,59.3,43.0,52.6,46.4,40.9,94,65,39,29.98,29.85,13,1,15,0.00
2012-5-11,69.9,60.5,48.2,59.8,51.1,43.3,94,72,55,30.24,29.81,16,2,23,0.07
2012-5-12,69.2,56.7,47.2,49.8,42.3,32.0,97,64,30,30.36,30.24,5,0,6,0.01
2012-5-13,74.9,59.8,44.5,46.3,39.5,32.4,75,50,26,30.29,30.08,9,0,11,0.00
2012-5-14,83.3,68.5,52.0,54.3,45.8,38.8,74,47,26,30.08,29.86,13,1,15,0.00
2012-5-15,72.4,65.0,53.3,52.3,44.7,37.6,65,48,35,30.08,29.84,11,1,17,0.00
2012-5-16,73.2,58.1,44.6,49.1,40.7,35.4,82,55,27,30.18,30.03,6,0,6,0.00
2012-5-17,81.2,65.7,49.6,50.7,45.7,39.9,74,51,31,30.04,29.80,30,5,30,0.00
2012-5-18,90.5,76.6,62.4,60.5,52.1,46.3,62,44,23,29.83,29.75,23,7,25,0.00
2012-5-19,85.8,75.4,65.9,65.5,59.7,53.9,92,59,43,29.86,29.75,20,5,28,0.00
2012-5-20,65.7,56.6,46.0,62.9,52.5,42.6,96,87,56,30.20,29.81,13,0,16,0.04
2012-5-21,78.0,59.8,43.8,54.0,45.5,39.3,94,64,30,30.26,30.10,4,0,5,0.00
2012-5-22,84.6,68.9,51.9,52.5,46.5,40.6,70,47,29,30.10,29.71,21,4,24,0.00
2012-5-23,87.0,73.1,63.6,64.5,54.0,47.8,95,53,36,29.73,29.41,29,6,29,0.09
2012-5-24,64.9,59.9,52.3,63.7,58.6,50.6,100,96,89,29.75,29.33,11,0,14,1.20
2012-5-25,68.0,59.2,49.1,58.2,53.9,47.7,97,83,63,30.11,29.75,5,0,7,0.01
2012-5-26,63.1,60.4,57.9,62.4,59.2,56.3,98,96,90,30.20,29.86,8,0,14,0.30
2012-5-27,89.3,74.5,61.6,77.2,67.7,60.5,99,81,56,29.86,29.61,17,3,21,0.34
2012-5-28,78.3,67.2,55.3,67.2,60.2,48.8,97,80,56,29.81,29.63,14,2,15,0.20
2012-5-29,63.0,55.8,51.4,51.8,47.8,42.7,82,74,62,29.95,29.77,13,2,15,0.00
2012-5-30,62.4,53.0,47.9,49.8,45.8,42.4,93,77,56,30.04,29.94,5,0,8,0.03
2012-5-31,65.8,54.3,46.4,50.8,46.8,39.4,97,78,47,30.07,30.00,4,0,6,0.16
2012-6-1,71.8,57.6,43.4,49.4,43.3,37.6,93,63,33,30.00,29.82,5,0,8,0.00
2012-6-2,74.7,61.5,48.4,54.7,49.6,44.4,91,68,40,29.82,29.76,9,0,10,0.00
2012-6-3,74.5,63.5,51.5,60.6,54.8,49.3,93,74,52,29.86,29.80,9,0,9,0.00
2012-6-4,84.5,70.8,57.0,64.7,58.1,53.4,90,66,41,29.96,29.85,4,0,7,0.00
2012-6-5,85.4,70.8,57.5,65.6,59.4,55.0,95,70,42,30.04,29.96,4,0,6,0.00
2012-6-6,84.8,69.6,56.7,63.4,57.4,53.9,92,68,40,30.08,30.01,10,1,13,0.00
2012-6-7,79.7,71.2,62.8,66.5,59.7,52.3,78,67,57,30.13,30.01,13,2,17,0.00
2012-6-8,88.1,76.5,66.2,66.8,60.8,55.6,72,59,42,30.02,29.79,12,2,17,0.00
2012-6-9,89.2,78.3,68.8,62.2,57.3,54.2,64,50,33,29.81,29.69,20,5,24,0.00
2012-6-10,90.0,78.1,61.7,68.6,62.6,56.5,95,61,42,29.80,29.62,24,6,30,0.26
2012-6-11,71.8,63.8,55.8,63.4,55.5,44.0,97,76,52,30.02,29.73,12,2,17,0.01
2012-6-12,69.1,58.0,51.5,51.9,46.2,42.7,83,66,42,30.19,30.02,14,1,14,0.00
2012-6-13,78.8,62.6,49.2,58.6,50.5,45.2,89,66,44,30.15,29.94,11,1,21,0.00
2012-6-14,68.8,64.3,60.0,66.3,58.7,50.9,97,83,62,29.96,29.78,22,1,24,3.17
2012-6-15,79.5,69.6,61.2,70.7,65.4,60.0,98,87,69,30.03,29.91,3,0,5,0.00
2012-6-16,82.0,69.8,59.3,74.4,65.8,55.6,97,88,68,29.99,29.82,9,0,11,0.17
2012-6-17,75.1,64.6,53.7,65.2,58.4,51.4,96,82,54,29.91,29.49,12,1,21,1.31
2012-6-18,93.5,78.4,65.4,74.6,67.9,59.9,98,73,37,29.69,29.48,11,1,18,1.73
2012-6-19,90.2,77.6,62.5,75.9,69.0,60.2,97,76,57,29.85,29.64,23,4,26,0.63
2012-6-20,80.5,72.0,61.5,70.6,66.7,60.3,96,84,69,29.92,29.69,18,3,23,0.34
2012-6-21,75.7,66.0,58.1,61.8,59.0,56.6,97,80,54,30.03,29.91,13,1,13,0.01
2012-6-22,65.4,64.6,64.1,59.9,59.6,59.0,85,84,81,29.99,29.98,0,0,0,0.00
2012-6-23,75.7,68.1,61.8,65.5,62.1,58.1,91,81,67,29.99,29.91,13,1,17,0.00
2012-6-24,85.2,73.6,64.3,75.2,66.8,58.0,96,80,59,30.10,29.94,5,0,6,0.00
2012-6-25,80.7,66.8,54.4,64.1,55.5,51.0,91,69,44,30.19,30.03,6,0,8,0.00
2012-6-26,82.8,67.3,53.9,62.2,55.7,51.0,92,69,40,30.07,29.78,13,1,14,0.00
2012-6-27,94.5,79.3,67.1,81.3,68.0,57.3,91,69,56,29.78,29.67,15,3,19,0.00
2012-6-28,85.3,76.8,64.9,74.8,65.3,57.9,90,69,42,29.97,29.75,5,0,9,0.00
2012-6-29,89.7,74.2,59.1,71.5,63.3,54.6,91,71,38,29.94,29.82,6,0,7,0.00
2012-6-30,91.7,77.9,66.8,73.5,67.1,62.0,97,72,44,29.91,29.84,2,0,5,0.00
2012-7-1,90.8,78.9,69.0,77.6,70.9,62.2,93,77,51,29.95,29.88,11,0,15,0.00
2012-7-2,94.6,83.8,74.6,77.3,73.4,70.3,94,73,50,29.91,29.80,14,3,18,0.00
2012-7-3,96.2,83.1,67.6,81.3,74.3,65.5,95,76,56,29.93,29.75,12,1,17,0.05
2012-7-4,95.2,85.8,75.5,79.2,76.3,73.3,95,75,55,29.85,29.77,15,3,18,0.00
2012-7-5,95.2,83.6,74.7,82.1,75.2,67.7,89,76,56,29.98,29.84,6,0,7,0.00
2012-7-6,97.6,83.1,69.8,80.9,73.6,64.2,95,75,49,30.04,29.88,14,1,18,0.00
2012-7-7,84.8,73.2,64.0,68.9,63.6,58.5,94,74,51,30.16,30.01,6,0,6,0.00
2012-7-8,87.4,76.8,67.1,68.7,64.0,58.1,84,66,44,30.19,30.09,9,0,9,0.00
2012-7-9,86.4,74.5,64.0,65.7,60.4,55.1,88,65,37,30.16,30.11,5,0,6,0.00
2012-7-10,88.5,73.1,59.6,66.6,59.3,53.7,94,65,34,30.19,30.12,3,0,5,0.00
2012-7-11,87.0,73.1,58.4,66.9,60.0,54.5,89,66,38,30.18,30.06,11,1,15,0.00
2012-7-12,87.6,74.3,61.1,69.5,63.6,58.5,93,71,46,30.08,29.98,12,1,16,0.00
2012-7-13,89.1,75.8,67.5,74.0,67.9,63.3,93,78,54,30.02,29.94,17,2,19,0.02
2012-7-14,90.5,76.8,64.0,72.6,67.4,62.2,96,75,48,30.05,29.99,5,0,7,0.00
2012-7-15,91.2,78.7,67.4,75.6,69.8,65.6,96,76,46,30.08,29.97,7,0,8,0.00
2012-7-16,95.2,83.0,71.3,72.2,69.1,65.8,91,65,40,29.97,29.78,21,3,22,0.00
2012-7-17,97.1,83.4,73.5,80.0,73.4,69.2,87,73,50,29.90,29.80,8,0,9,0.00
2012-7-18,88.3,74.0,69.4,76.9,70.4,67.8,96,89,66,29.95,29.86,5,0,9,0.21
2012-7-19,85.7,73.6,67.6,73.7,69.1,65.8,97,87,63,30.09,29.95,3,0,4,0.00
2012-7-20,84.4,74.2,63.5,71.1,66.0,61.1,96,77,57,30.15,30.04,11,2,15,0.00
2012-7-21,88.9,76.1,68.1,75.5,69.4,64.7,96,81,61,30.11,29.99,11,1,15,0.03
2012-7-22,88.8,78.6,71.2,76.3,71.8,67.1,94,81,63,30.03,29.90,16,2,21,0.00
2012-7-23,93.6,80.1,70.4,78.1,72.6,66.5,97,80,47,30.02,29.92,7,0,8,0.00
2012-7-24,80.6,72.4,68.0,76.6,70.4,66.6,98,94,83,30.04,29.81,5,0,7,0.20
2012-7-25,91.3,79.8,73.0,79.1,73.3,70.2,94,81,62,29.81,29.62,17,2,18,0.00
2012-7-26,83.2,71.8,62.0,71.7,65.5,60.8,96,82,53,29.86,29.68,13,0,15,0.52
2012-7-27,79.1,67.6,60.3,68.5,62.6,59.4,98,85,60,30.13,29.86,5,0,8,0.00
2012-7-28,82.6,71.0,59.4,71.7,64.8,58.3,97,82,58,30.17,30.03,10,0,11,0.00
2012-7-29,83.0,70.4,64.7,74.1,67.1,63.5,97,90,67,30.07,29.97,7,0,9,0.57
2012-7-30,87.2,75.0,65.5,76.9,68.8,64.0,96,83,56,29.99,29.91,7,0,9,0.00
2012-7-31,86.5,74.5,65.0,73.2,66.7,63.2,95,78,50,30.04,29.98,4,0,6,0.00
2012-8-1,82.1,69.7,63.9,73.2,65.4,61.8,95,87,69,29.98,29.90,12,2,18,0.00
2012-8-2,88.1,76.4,68.3,71.6,68.1,65.9,93,77,53,29.91,29.87,0,0,3,0.00
2012-8-3,90.8,76.6,64.1,75.1,68.9,62.9,97,79,54,29.92,29.77,10,0,21,0.76
2012-8-4,77.3,67.8,63.6,66.0,63.0,60.0,97,86,60,29.97,29.78,11,1,14,0.26
2012-8-5,75.8,64.7,55.3,60.4,56.7,52.1,94,77,52,30.22,29.97,7,0,12,0.00
2012-8-6,84.1,70.1,55.5,71.0,61.9,53.7,95,77,54,30.15,29.96,12,2,14,0.00
2012-8-7,86.5,73.8,63.1,70.6,64.2,56.1,98,75,44,30.03,29.95,3,0,6,0.00
2012-8-8,76.6,68.2,62.9,72.2,63.9,57.7,96,86,77,30.04,29.95,3,0,6,0.24
2012-8-9,77.5,66.9,60.4,67.8,61.6,55.9,97,84,60,30.10,29.98,7,0,11,0.00
2012-8-10,76.4,64.7,56.7,61.5,56.5,52.0,94,76,50,30.17,30.09,3,0,4,0.00
2012-8-11,76.0,62.6,49.4,61.5,54.3,47.2,96,76,46,30.13,30.02,5,0,8,0.00
2012-8-12,62.1,60.4,58.6,59.9,57.8,55.3,97,91,85,30.04,30.00,0,0,0,0.04
2012-8-13,79.1,65.4,54.1,67.1,59.9,53.3,100,84,59,30.06,29.98,8,0,11,0.00
2012-8-14,77.1,66.0,55.7,64.2,59.0,54.1,96,80,49,30.01,29.90,4,0,5,0.00
2012-8-15,81.1,69.1,60.6,69.4,63.8,58.5,97,85,63,29.90,29.73,16,2,18,2.78
2012-8-16,67.6,61.6,52.7,66.3,56.1,49.2,97,83,61,30.04,29.79,11,1,14,0.00
2012-8-17,73.1,58.7,47.3,56.4,50.7,45.7,98,77,46,30.12,30.04,4,0,6,0.00
2012-8-18,76.8,62.3,49.9,58.2,53.4,48.2,96,75,45,30.06,29.98,5,0,7,0.05
2012-8-19,74.8,62.1,53.0,62.7,55.7,48.0,97,81,51,30.04,29.98,5,0,7,0.05
2012-8-20,77.8,61.1,47.5,58.4,50.0,44.9,97,71,33,30.05,30.00,5,0,6,0.00
2012-8-21,80.0,63.8,49.2,60.5,53.1,46.7,95,72,40,30.10,30.01,11,0,12,0.00
2012-8-22,74.0,63.8,54.1,65.6,58.4,51.3,93,83,60,30.02,29.91,11,1,15,0.02
2012-8-23,84.9,74.1,64.2,71.2,63.7,58.2,94,71,56,29.95,29.82,20,2,20,1.50
2012-8-24,86.1,73.7,60.7,74.2,66.7,59.6,97,80,60,29.94,29.81,14,2,17,0.51
2012-8-25,71.9,67.8,63.3,67.8,64.6,61.1,96,90,72,29.99,29.91,10,0,10,0.19
2012-8-26,83.7,70.9,62.7,71.0,66.1,61.2,97,86,56,30.07,29.96,5,0,6,0.01
2012-8-27,83.2,69.8,59.3,67.5,62.5,58.5,98,80,49,30.16,30.06,4,0,4,0.00
2012-8-28,86.5,71.4,62.0,75.2,66.0,59.4,94,84,63,30.15,29.99,4,0,6,0.00
2012-8-29,91.9,75.9,64.2,77.2,66.4,62.9,96,75,43,30.00,29.81,14,1,16,0.00
2012-8-30,91.7,78.7,70.6,73.6,66.0,61.9,88,66,47,29.95,29.77,18,3,20,0.00
2012-8-31,85.2,71.5,62.5,66.8,58.7,52.5,89,66,38,30.12,29.95,2,0,4,0.00
2012-9-1,84.0,68.2,57.3,65.3,57.3,50.8,84,70,45,30.15,30.03,5,0,7,0.00
2012-9-2,89.3,71.0,56.9,76.6,63.9,53.7,93,79,56,30.04,29.87,8,0,11,0.00
2012-9-3,87.0,75.2,67.1,75.4,69.1,65.3,96,82,56,29.94,29.88,8,0,8,0.40
2012-9-4,88.2,73.5,63.0,73.2,65.0,54.3,97,77,41,29.92,29.78,9,0,13,0.00
2012-9-5,79.4,66.1,55.7,63.8,56.9,50.2,96,74,48,29.93,29.72,11,0,13,0.07
2012-9-6,78.7,63.4,50.4,62.9,54.3,48.2,94,75,39,30.00,29.89,7,0,8,0.00
2012-9-7,69.0,60.9,51.8,58.1,52.9,46.6,91,76,53,30.04,29.88,8,0,11,0.01
2012-9-8,76.0,58.4,44.4,54.2,48.2,43.1,96,72,40,30.05,29.82,12,1,19,0.00
2012-9-9,73.6,58.9,48.1,56.2,51.3,46.2,96,78,44,30.21,30.05,4,0,6,0.00
2012-9-10,80.2,65.8,51.2,54.4,50.3,47.5,92,61,34,30.12,29.85,26,5,26,0.00
2012-9-11,92.1,76.4,63.4,57.1,53.8,51.2,70,48,27,29.88,29.75,23,8,30,0.00
2012-9-12,75.5,58.4,52.9,57.5,53.2,50.0,97,84,46,30.26,29.87,9,0,10,0.13
2012-9-13,75.4,59.0,49.9,55.0,48.1,37.8,100,73,27,30.35,30.25,4,0,8,0.01
2012-9-14,77.5,59.0,44.6,50.9,45.5,39.0,95,66,26,30.33,30.25,2,0,4,0.00
2012-9-15,81.6,64.8,49.8,51.7,46.9,43.7,83,56,28,30.25,30.00,13,2,19,0.00
2012-9-16,79.8,66.9,58.8,61.4,53.7,45.1,82,63,45,30.00,29.88,17,2,18,0.00
2012-9-17,62.5,54.3,47.1,51.0,45.8,39.2,95,74,48,30.01,29.92,11,0,12,0.24
2012-9-18,60.1,48.5,38.2,44.0,39.9,34.9,96,74,41,30.04,29.90,5,0,9,0.00
2012-9-19,71.5,58.0,45.6,53.0,42.6,35.3,88,58,37,29.90,29.67,18,3,19,0.00
2012-9-20,64.5,51.8,41.5,43.8,40.1,36.6,89,67,37,29.94,29.86,14,1,17,0.00
2012-9-21,62.5,52.4,42.5,48.5,43.1,34.4,94,72,52,29.90,29.81,10,0,17,0.02
2012-9-22,56.7,45.8,36.6,42.9,35.6,29.1,87,69,44,30.24,29.90,9,1,13,0.00
2012-9-23,59.7,43.3,30.9,39.0,34.0,29.4,95,73,37,30.32,30.17,7,0,11,0.00
2012-9-24,76.3,55.4,36.1,47.9,38.6,29.3,91,57,28,30.17,29.77,18,2,18,0.00
2012-9-25,67.7,53.2,42.6,47.9,42.1,38.8,90,69,37,29.96,29.79,4,0,6,0.00
2012-9-26,65.4,49.0,36.6,45.4,39.2,35.0,95,72,38,30.21,29.95,3,0,4,0.00
2012-9-27,70.5,51.2,38.1,45.7,40.0,35.0,92,69,32,30.27,30.17,5,0,7,0.00
2012-9-28,76.5,56.2,41.1,49.8,43.8,39.0,93,68,27,30.22,30.11,7,0,11,0.00
2012-9-29,79.6,61.3,48.7,53.7,46.3,39.8,86,61,33,30.13,30.02,4,0,5,0.00
2012-9-30,78.7,59.8,48.3,52.1,45.1,40.6,85,61,30,30.04,29.91,4,0,4,0.00
2012-10-1,68.7,59.2,50.3,53.0,45.3,40.3,79,60,44,29.96,29.85,10,1,11,0.00
2012-10-2,72.5,55.9,40.3,49.8,41.9,37.0,91,62,32,29.99,29.86,9,0,11,0.00
2012-10-3,77.1,59.2,44.9,49.4,44.5,40.4,93,63,31,29.93,29.84,14,1,14,0.00
2012-10-4,62.6,47.4,39.4,46.2,37.0,31.5,81,67,48,30.17,29.81,19,5,22,0.00
2012-10-5,46.7,39.4,32.7,32.9,29.1,27.1,80,67,52,30.17,30.10,16,4,18,0.00
2012-10-6,43.9,37.7,31.7,31.5,28.4,24.6,84,69,47,30.26,30.14,8,0,12,0.00
2012-10-7,52.7,37.7,23.3,29.5,24.3,20.3,92,62,29,30.22,29.90,18,1,18,0.00
2012-10-8,63.7,50.1,38.8,42.5,34.2,25.5,70,55,35,29.90,29.62,18,3,21,0.00
2012-10-9,49.5,44.8,35.2,44.8,35.9,26.1,92,72,53,29.99,29.75,15,2,16,0.04
2012-10-10,52.1,41.9,27.6,32.2,27.8,23.7,88,60,41,30.11,29.86,17,2,17,0.00
2012-10-11,52.7,44.4,30.0,36.2,28.5,17.2,83,55,32,30.37,29.82,19,1,25,0.00
2012-10-12,53.8,39.1,22.9,29.4,22.4,17.2,91,56,24,30.42,30.03,16,1,19,0.00
2012-10-13,56.7,50.8,45.0,55.5,47.5,26.6,100,89,43,30.03,29.69,18,2,26,0.03
2012-10-14,57.9,49.4,45.0,50.0,42.5,34.3,100,80,43,29.89,29.71,11,0,14,0.01
2012-10-15,62.2,48.9,32.0,42.7,38.1,29.6,95,69,43,29.97,29.76,10,0,14,0.00
2012-10-16,64.6,54.4,48.4,55.9,47.6,42.1,96,79,60,29.76,29.39,14,1,22,0.25
2012-10-17,60.2,51.5,44.5,52.2,46.3,41.5,96,83,60,29.39,29.20,18,3,21,0.01
2012-10-18,46.4,43.1,40.5,43.0,41.3,38.9,96,94,87,29.41,29.21,8,1,8,0.04
2012-10-19,49.9,44.1,35.0,48.8,42.9,34.0,97,95,89,29.75,29.41,6,0,6,0.12
2012-10-20,52.6,44.1,34.2,46.4,42.1,33.1,98,93,79,29.84,29.74,12,1,12,0.00
2012-10-21,70.7,53.9,40.5,55.9,47.3,39.0,97,80,52,29.91,29.77,18,1,19,0.00
2012-10-22,64.1,55.0,47.8,53.1,49.6,45.1,93,82,65,29.93,29.86,6,0,6,0.00
2012-10-23,64.9,59.5,55.5,60.0,56.8,52.3,97,91,83,29.86,29.70,20,1,21,0.00
2012-10-24,59.1,55.1,48.5,56.4,53.6,47.5,99,95,89,29.86,29.75,8,0,11,0.22
2012-10-25,48.3,38.5,34.2,47.4,36.2,28.9,97,91,75,30.16,29.66,16,3,23,0.79
2012-10-26,38.4,34.5,28.4,29.2,27.5,25.3,88,76,64,30.36,30.16,13,4,16,0.00
2012-10-27,42.9,31.9,23.7,29.7,25.5,22.2,96,79,48,30.36,30.28,7,0,9,0.00
2012-10-28,45.8,33.6,24.7,29.2,25.2,21.9,92,73,46,30.33,30.25,15,1,17,0.00
2012-10-29,45.9,35.8,26.2,33.2,27.7,21.8,86,73,57,30.31,30.22,8,0,9,0.00
2012-10-30,48.9,37.2,28.5,33.4,27.0,19.0,85,67,47,30.23,30.05,6,0,10,0.00
2012-10-31,49.4,36.0,23.6,30.9,23.8,18.3,83,63,34,30.06,29.92,7,0,9,0.00
2012-11-1,46.9,40.1,30.1,35.3,29.8,23.6,81,67,53,30.04,29.92,9,1,14,0.00
2012-11-2,37.5,32.9,26.2,30.3,26.9,22.7,90,79,69,30.15,30.04,2,0,4,0.00
2012-11-3,43.1,38.1,34.9,34.2,30.4,28.0,86,74,61,30.21,30.14,2,0,4,0.00
2012-11-4,43.4,38.3,32.5,39.2,35.2,30.5,96,89,81,30.21,30.12,4,0,6,0.01
2012-11-5,43.8,40.8,37.5,39.1,37.4,35.6,95,88,81,30.18,29.95,12,1,19,0.01
2012-11-6,43.4,39.7,37.8,38.9,37.0,34.1,96,90,80,29.97,29.77,17,3,17,0.19
2012-11-7,43.8,38.5,33.5,37.5,34.7,31.0,93,86,72,30.11,29.97,6,0,7,0.00
2012-11-8,54.9,42.3,32.7,41.6,36.0,30.1,92,79,59,30.06,29.92,20,3,23,0.00
2012-11-9,56.5,43.6,34.2,43.9,38.2,32.7,95,82,61,30.03,29.90,8,0,14,0.00
2012-11-10,71.6,55.6,43.1,59.2,50.6,40.5,98,85,59,29.90,29.49,28,4,28,0.43
2012-11-11,54.5,31.8,20.4,53.0,28.7,14.4,95,88,77,29.95,29.54,18,6,18,0.02
2012-11-12,24.9,21.0,18.3,18.7,16.4,13.0,90,82,73,30.28,29.94,16,4,17,0.00
2012-11-13,42.4,30.0,15.3,29.6,22.6,12.7,91,75,52,30.34,30.25,15,2,15,0.00
2012-11-14,52.4,39.6,29.4,36.2,31.8,27.2,94,75,48,30.26,30.15,9,1,13,0.00
2012-11-15,51.2,40.1,27.5,38.6,29.7,15.3,84,67,54,30.43,30.12,10,1,10,0.00
2012-11-16,46.3,31.7,21.5,30.4,20.6,13.9,88,65,35,30.46,30.30,8,0,9,0.00
2012-11-17,54.6,45.3,34.8,40.9,36.2,30.5,85,71,58,30.31,30.19,23,5,23,0.00
2012-11-18,59.4,49.8,43.0,37.3,34.8,32.0,65,57,42,30.20,30.06,20,6,22,0.00
2012-11-19,59.2,48.4,35.9,41.6,38.2,33.5,94,69,51,30.10,30.01,16,3,20,0.00
2012-11-20,53.2,39.7,29.7,41.3,34.8,28.1,96,83,57,30.16,30.05,8,0,9,0.00
2012-11-21,65.9,53.3,41.4,45.1,40.2,33.6,74,62,42,30.06,29.72,20,5,22,0.00
2012-11-22,56.9,44.5,23.5,45.3,36.9,17.4,92,75,61,29.99,29.64,24,6,25,0.00
2012-11-23,27.6,20.9,14.5,18.7,15.2,11.2,87,79,63,30.34,29.99,19,4,23,0.00
2012-11-24,28.6,20.0,8.5,19.9,13.9,6.2,93,78,62,30.32,29.79,13,2,14,0.00
2012-11-25,32.1,28.2,23.0,24.6,22.0,12.5,84,77,63,30.14,29.80,14,2,16,0.00
2012-11-26,22.9,15.4,9.9,12.8,8.2,6.3,86,73,53,30.38,30.14,11,1,16,0.00
2012-11-27,37.9,24.0,13.6,26.4,17.5,8.7,90,76,61,30.32,30.07,17,2,20,0.00
2012-11-28,35.7,28.9,21.0,25.3,23.0,18.5,92,79,64,30.32,30.07,9,1,11,0.00
2012-11-29,42.9,32.0,22.6,29.3,25.1,19.9,92,76,58,30.07,30.00,6,0,6,0.00
2012-11-30,36.5,33.2,31.0,32.0,29.7,26.1,95,87,81,30.15,30.04,7,0,8,0.00
2012-12-1,48.5,39.6,33.2,45.7,37.6,31.9,97,93,87,30.05,29.72,13,1,16,0.00
2012-12-2,46.1,35.3,26.5,43.3,33.7,25.3,97,94,83,30.00,29.79,17,0,17,0.00
2012-12-3,54.6,46.6,38.3,53.8,42.6,29.6,98,86,69,29.94,29.57,20,3,22,0.01
2012-12-4,39.8,29.7,17.9,31.3,21.5,12.9,83,71,59,30.37,29.94,13,2,13,0.00
2012-12-5,39.2,28.3,16.3,28.3,18.5,12.5,86,68,49,30.37,29.86,21,1,22,0.00
2012-12-6,43.4,38.6,27.1,38.4,31.7,22.0,91,76,65,29.99,29.79,21,5,26,0.02
2012-12-7,29.6,25.4,19.5,26.2,22.6,17.6,95,89,78,30.03,29.98,10,0,10,0.00
2012-12-8,31.4,27.1,20.8,27.9,24.9,19.1,96,92,86,30.05,29.96,5,0,7,0.06
2012-12-9,32.0,29.5,20.4,31.0,28.1,18.1,96,95,87,29.98,29.78,5,0,6,0.00
2012-12-10,20.0,6.7,-4.2,18.0,3.6,-7.8,92,87,76,29.95,29.82,0,0,0,0.00
2012-12-11,21.2,13.4,3.5,17.9,11.0,1.4,94,90,86,29.99,29.78,0,0,0,0.00
2012-12-12,41.5,31.0,13.9,29.4,23.0,12.1,95,74,56,29.99,29.83,18,4,21,0.50
2012-12-13,37.3,28.7,15.5,24.1,20.3,13.1,93,72,57,30.10,29.91,15,2,19,0.02
2012-12-14,39.3,28.0,15.4,32.3,23.9,13.2,95,85,68,30.11,29.78,6,0,7,0.04
2012-12-15,36.9,35.1,32.3,35.5,33.8,31.5,97,95,83,29.78,29.50,5,0,7,0.48
2012-12-16,32.8,23.6,18.4,32.0,22.5,17.0,97,95,94,29.81,29.56,10,2,11,0.00
2012-12-17,24.2,21.6,19.4,23.0,20.3,18.0,100,95,93,29.80,29.69,3,0,4,0.00
2012-12-18,28.3,25.4,23.0,27.0,23.8,21.8,100,94,90,29.82,29.62,6,0,9,0.00
2012-12-19,31.9,28.3,25.4,29.3,26.8,23.9,96,94,90,30.01,29.82,8,1,11,0.01
2012-12-20,26.0,21.0,11.5,24.7,18.3,8.4,95,89,82,30.03,29.81,16,2,17,0.00
2012-12-21,16.4,8.4,3.5,10.1,5.1,0.6,100,86,76,30.23,30.03,8,1,9,0.00
2012-12-22,28.0,16.3,7.2,19.1,11.8,4.4,91,82,68,30.16,29.94,9,0,13,0.05
2012-12-23,18.4,14.2,10.1,15.4,10.4,7.1,93,85,75,30.10,29.97,5,0,8,0.01
2012-12-24,20.2,13.2,4.2,13.2,8.2,0.2,93,80,72,30.23,29.96,10,0,10,0.00
2012-12-25,9.5,2.8,-3.3,3.4,-1.2,-6.3,99,83,74,30.43,30.23,6,0,7,0.00
2012-12-26,19.4,8.8,0.1,8.2,3.4,-3.2,97,79,59,30.36,30.19,3,0,3,0.00
2012-12-27,19.9,13.8,5.7,16.6,10.3,2.1,92,86,76,30.21,30.11,4,0,5,0.00
2012-12-28,25.0,19.2,13.9,20.1,16.6,12.0,93,90,81,30.11,29.97,3,0,4,0.00
2012-12-29,14.8,11.2,1.9,13.6,8.5,-0.8,100,89,82,30.15,30.00,8,1,10,0.00
2012-12-30,27.1,12.2,-1.6,20.4,8.5,-4.8,92,85,74,30.17,29.88,13,1,15,0.00
2012-12-31,14.7,8.1,-6.9,11.7,3.0,-11.1,89,80,65,30.23,29.95,9,1,10,0.00
2013-1-1,19.0,3.9,-12.1,16.6,0.4,-16.0,90,85,74,30.23,30.01,9,1,10,0.00